Regional Weather Roundup
Issued by NWS Charleston, SC

Current Version | Previous Version | Graphics & Text | Print | Product List | Glossary On
Versions: 1 2 3 4 5 6 7 8 9 10 11 12 13 14 15 16 17 18 19 20 21 22 23 24 25 26 27 28 29 30 31 32 33 34 35 36 37 38 39 40 41 42 43 44 45 46 47 48 49 50
000
ASUS42 KCHS 190710
RWRCHS
REGIONAL WEATHER ROUNDUP
NATIONAL WEATHER SERVICE CHARLESTON SC
300 AM EDT FRI SEP 19 2014

NOTE: "FAIR" INDICATES FEW OR NO CLOUDS BELOW 12,000 FEET WITH NO
SIGNIFICANT WEATHER AND/OR OBSTRUCTIONS TO VISIBILITY.

NOT ALL STATIONS ARE QUALITY CONTROLLED BY THE NATIONAL
WEATHER SERVICE. USE DATA WITH CAUTION...ESPECIALLY
DEWPOINT OBSERVATIONS.

SCZ027-030-031-034>040-042>050-190800-
...SOUTH CAROLINA...

CITY           SKY/WX    TMP DP  RH WIND       PRES   REMARKS
N CHARLESTON   PTCLDY    72  68  87 NE7       29.98F
WATERFRONT PRK   N/A     75 N/A N/A N7          N/A
FORT JOHNSON   NOT AVBL
MOUNT PLEASANT FAIR      72  70  94 CALM      29.98F FOG
JOHNS ISLAND   MOSUNNY   73  73 100 CALM      29.98S
PINOPOLIS        N/A     75  72  88 E9        29.93S
MONCKS CORNER    N/A     72  72 100 NE3       29.99F
SUMMERVILLE    FAIR      68  68 100 CALM      30.00S
BEAUFORT MCAS  PTCLDY    72  70  93 CALM      29.97F
BEAUFORT ARPT  FAIR      72  72 100 CALM      29.97F
HILTON HEAD IS MOCLDY    72  70  94 CALM      29.98F
GEORGETOWN     NOT AVBL
WALTERBORO     MOSUNNY   70 N/A N/A CALM      30.00S
ORANGEBURG     MOCLDY    69  67  93 NE5       30.01S
BARNWELL       FAIR      70  68  94 CALM      30.02R FOG
AIKEN          FAIR      68  68 100 CALM      30.05S
MANNING        FAIR      70 N/A N/A CALM      30.01S
KINGSTREE      NOT AVBL
COLUMBIA       MOCLDY    70  67  90 CALM      30.01S
SUMTER         PTCLDY    68  64  88 NE5       30.01S
FLORENCE       MOCLDY    68  63  84 NE5       30.03R
MYRTLE BEACH   MOCLDY    77  64  65 E12G17    30.01S
N MYRTLE BEACH CLEAR     69  63  81 NE6       30.01F

$$

GAZ063-065-086>088-099>101-113>116-118-119-134-136>141-150-190800-
...GEORGIA...

CITY           SKY/WX    TMP DP  RH WIND       PRES   REMARKS
SAVANNAH ARPT  PTCLDY    72  69  90 CALM      29.97F
HUNTER AAF     PTCLDY    73  70  90 CALM      29.95F
FORT STEWART   MOCLDY    72  70  94 N5        29.96F FOG
STATESBORO     NOT AVBL
SYLVANIA       MOSUNNY   72  71  97 CALM      30.00S FOG
CLAXTON        FAIR     N/A N/A N/A CALM      29.98S
THOMSON        PTCLDY    68  68 100 CALM      30.06S
AUGUSTA-BUSH   PTCLDY    66  66 100 CALM      30.00R FOG
AUGUSTA-DANIEL PTCLDY    72  68  87 E3        30.01S
SWAINSBORO     FAIR      70  70 100 CALM      30.00S
VIDALIA        PTCLDY    72  72 100 CALM      29.98F
ALMA           PTCLDY    71  70  96 CALM      29.96F FOG
WAYCROSS       PTCLDY    75  75  98 CALM      29.95F
JESUP          FAIR      75  73  94 NE3       29.96F
BRUNSWICK      MOCLDY    73  72  94 CALM      29.96S
SAINT SIMONS   MOCLDY    77  73  87 NW5       29.94F

$$

SCZ027-028-034-036>038-045-046-048>050-GAZ119-141-190800-
...LAKE AND SUPPLEMENTAL COASTAL OBSERVATIONS...

STATION/POSITION TIME  TEMP    WIND        PRES    WAVE   SWELL
                       AIR SEA DIR/SP/G            HT/PER HT/PER/DIR
                 (UTC) (F)     (DEG/KT/KT) (MB)    (FT/S) (FT/S/D)
UPR LAKE MARION  NOT AVBL
WINYAH BAY       0600   79      90/ 13     1015.0S
LAKE MURRAY      0600   72     100/  6/  8 1015.9S
ACE BASIN NERRS  0600   70        CALM     1015.0S
FORT PULASKI     0700   75     120/  3/  4 1014.9F
SAPELO ISLAND    0600   76      20/  1     1015.0S

$$

ANZ835-935-AMZ111-154-330-350-352-354-374-450-454-472-190800-
...C-MAN AND BUOY OBSERVATIONS...

STATION/POSITION TIME  TEMP    WIND        PRES    WAVE   SWELL
                       AIR SEA DIR/SP/G            HT/PER HT/PER/DIR
                 (UTC) (F)     (DEG/KT/KT) (MB)    (FT/S) (FT/S/D)
FOLLY BEACH CMAN 0600   80      80/  8/  9 1015.6F
BUOY 41004       0700   81 83  100/  6/  8 1014.7S   3/ 6   3/ 6
BUOY 41008       0700   82 84  150/  6/  8 1014.1F   2/11   2/110/11
5E ST. MARYS GA  0700      84                N/A     2/13   2/100/13
FRYING PAN BUOY  NOT AVBL
BUOY 41025       0700   74      20/ 14/ 19 1017.2F   4/ 7   3/ 60/ 9
CAPE LOOKOUT NC  0600   76      50/ 15/ 17 1017.3F
BUOY 41002       0641   78 82   80/ 14/ 16 1015.4F   4/11   2/ 70/11
BUOY 41010       0700   82 85   90/  6/ 10 1013.4F   3/11   3/ 40/11
BUOY 41012       NOT AVBL
ST AUGUSTINE FL  0700   77      CALM  /  1 1014.2F
CAPERS NEARSHORE 0600   79      90/ 14/ 16   N/A
FRIPP NEARSHORE  NOT AVBL


$$


USA.gov is the U.S. government's official web portal to all federal, state and local government web resources and services.